Publication des contrats de plus de 10 000 $


2005-2006 - 2e trimestre

Veuillez sélectionner le nom du vendeur afin d’obtenir les détails du contrat.

Date du contratNom du vendeur Description Valeur du contrat
2005-09-30Harrington Staffing0813 SERVICES-AIDE TEMPORAIRE 11 043,68 $ 
2005-09-30Design 2000 Communications0321 SERVICES IMPRIMERIE 23 560,87 $ 
2005-09-30Design 2000 Communications0321 SERVICES IMPRIMERIE 41 997,50 $ 
2005-09-29CANON CANADA INC 0533 LOC MACHINE MOBIL BUR-EQUIP 28 620,36 $ 
2005-09-29SIMPLEX INDUSTRIES INC 0859 AUTRES SERV COMMER NON-SPEC 25 000,00 $ 
2005-09-29TOTEM OFFISOURCE INC 1172 PAPETERIE-FOURNITURES BUREAU 10 700,00 $ 
2005-09-29Accountemp0813 SERVICES-AIDE TEMPORAIRE 15 031,36 $ 
2005-09-28Anthony Maccauley Associates Inc.0472 CONSEILLERS-TECH INFORMATION 24 717,00 $ 
2005-09-27Nesstar Americas Inc.0491 SERVICES CONSEILLERS GESTION 16 050,00 $ 
2005-09-27DESIGN 2000 COMMUNICATIONS 0321 SERVICES IMPRIMERIE 41 997,50 $ 
2005-09-27DESIGN 2000 COMMUNICATIONS 0321 SERVICES IMPRIMERIE 23 560,87 $ 
2005-09-27ITEX 1228 LOGICIELS 20 044,74 $ 
2005-09-26Quantum Management Services Limited0813 SERVICES-AIDE TEMPORAIRE 16 435,20 $ 
2005-09-26Maxsys0813 SERVICES-AIDE TEMPORAIRE 27 156,60 $ 
2005-09-26RESET ELECTRONICS INC 1226 MATERIEL ORDINATEUR GROS-MOY 37 122,58 $ 
2005-09-23DELL COMPUTER CORPORATION 1228 LOGICIELS 35 826,81 $ 
2005-09-23DELL COMPUTER CORPORATION 1226 MATERIEL ORDINATEUR GROS-MOY 37 284,15 $ 
2005-09-22NATIONAL PRINTERS 0321 SERVICES IMPRIMERIE 24 342,50 $ 
2005-09-21BELL CANADA 1226 MATERIEL ORDINATEUR GROS-MOY 38 964,69 $ 
2005-09-21TOTEM OFFISOURCE INC 1172 PAPETERIE-FOURNITURES BUREAU 10 700,00 $ 
2005-09-21TAB PRODUCTS OF CANADA 1224 MATERIEL COMM NUMERIQUE 32 624,30 $ 
2005-09-21Mugford, Adele0491 SERVICES CONSEILLERS GESTION 23 647,00 $ 
2005-09-20NATIONAL PRINTERS 1179 PRODUITS MANUFACTURES 27 953,75 $ 
2005-09-20Knowledge Circle0447 FRAIS ENSEIGN-DURANT HRS TRAV 16 875,63 $ 
2005-09-20NISHA TECHNOLOGIES INC. 1227 MATERIEL ORDINATEUR PETIT 14 400,06 $ 
2005-09-20Dennery Resources0491 SERVICES CONSEILLERS GESTION 17 976,00 $ 
2005-09-19NISHA TECHNOLOGIES INC. 1227 MATERIEL ORDINATEUR PETIT 39 030,39 $ 
2005-09-19Delsec Inc.0491 SERVICES CONSEILLERS GESTION 15 247,50 $ 
2005-09-19NISHA TECHNOLOGIES INC. 1227 MATERIEL ORDINATEUR PETIT 39 030,39 $ 
2005-09-19C.L.A. Personnel0813 SERVICES-AIDE TEMPORAIRE 15 291,58 $ 
2005-09-19NISHA TECHNOLOGIES INC. 1227 MATERIEL ORDINATEUR PETIT 39 993,39 $ 
2005-09-15RICOH CANADA INC 0533 LOC MACHINE MOBIL BUR-EQUIP 13 610,40 $ 
2005-09-14Decima Research Inc.0341 SERVICES RECHERCHE COMMUNIC 85 445,65 $ 
2005-09-13Christensen, Steffen0492 CONTRATS DE RECHERCHE 10 017,50 $ 
2005-09-12The Professional Edge0491 SERVICES CONSEILLERS GESTION 24 508,78 $ 
2005-09-12Sussex Circle0499 AUTRES SERVICES PROFESSIONNELS24 075,00 $ 
2005-09-09NISHA TECHNOLOGIES INC. 1227 MATERIEL ORDINATEUR PETIT 12 840,00 $ 
2005-09-07RICOH CANADA INC 0533 LOC MACHINE MOBIL BUR-EQUIP 11 556,00 $ 
2005-09-06LES ORDINATEURS PROSYS TEC INC 1227 MATERIEL ORDINATEUR PETIT 24 610,00 $ 
2005-09-05WAVERTREE COMMUNICATIONS INC 0321 SERVICES IMPRIMERIE 10 871,20 $ 
2005-09-05Delsys Research Group Inc.0492 CONTRATS DE RECHERCHE 24 931,00 $ 
2005-09-02TEKNION FURNITURE SYSTEMS LTD 1231 MOBILIER-AMEUBLEMENT BUREAU 37 980,45 $ 
2005-09-01Pyrik, John E.0446 CONSEILLERS EN FORMATION 24 877,50 $ 
2005-09-01Peter Sorbey and Associates0491 SERVICES CONSEILLERS GESTION 22 389,75 $ 
2005-09-01Badro, Mounira0492 CONTRATS DE RECHERCHE 24 367,45 $ 
2005-09-01RICOH CANADA INC 0533 LOC MACHINE MOBIL BUR-EQUIP 10 657,20 $ 
2005-08-30CEDROM-SNI 0351 SERV PROF COMMUNICATION 23 176,20 $ 
2005-08-30DELL COMPUTER CORPORATION 1226 MATERIEL ORDINATEUR GROS-MOY 37 391,15 $ 
2005-08-30DELL COMPUTER CORPORATION 1226 MATERIEL ORDINATEUR GROS-MOY 73 387,02 $ 
2005-08-30SHARP ELECTRONICS OF CANADA 0533 LOC MACHINE MOBIL BUR-EQUIP 14 027,70 $ 
2005-08-30ITEX 1228 LOGICIELS 37 759,52 $ 
2005-08-26ITEX 1226 MATERIEL ORDINATEUR GROS-MOY 98 955,74 $ 
2005-08-23Canadian Environmental Network0491 SERVICES CONSEILLERS GESTION 56 906,00 $ 
2005-08-23Kelly-Sears Consulting Group0351 SERVICE PROF COMMUNICATION 13 161,00 $ 
2005-08-19Sovereign Sedan & Limousine Service0201 VOYAGE-FONCTION PUBLIQUE 16 039,30 $ 
2005-08-19Wyldewood Print Management Inc.0331 SERVICES EXPOSITION 17 419,60 $ 
2005-08-19RICOH CANADA INC 0533 LOC MACHINE MOBIL BUR-EQUIP 18 553,80 $ 
2005-08-18Sossin, Lorne M.0492 CONTRATS DE RECHERCHE 13 875,00 $ 
2005-08-18Bryne Purchase Strategy Group Inc.0492 CONTRATS DE RECHERCHE 24 575,00 $ 
2005-08-10Guy Stanley Associates0492 CONTRATS DE RECHERCHE 23 540,00 $ 
2005-08-10LES ORDINATEURS PROSYS TEC INC 1227 MATERIEL ORDINATEUR PETIT 24 610,00 $ 
2005-08-09Ferrigan Consulting Services0491 SERVICES CONSEILLERS GESTION 21 400,00 $ 
2005-08-09École de langues La Cité Inc.0447 FRAIS ENSEIGN-DURANT HRS TRAV 16 359,00 $ 
2005-08-08Acton White Associates0492 CONTRATS DE RECHERCHE 20 467,50 $ 
2005-08-05Institute on Governance0492 CONTRATS DE RECHERCHE 24 900,00 $ 
2005-08-05Chenevert-Miquelon, Nicole0351 SERVICE PROF COMMUNICATION 24 075,00 $ 
2005-08-04WAVERTREE COMMUNICATIONS INC 0321 SERVICES IMPRIMERIE 49 369,80 $ 
2005-08-04Mediaco0520 LOCATION MATERIEL COMM TELEPH 28 988,00 $ 
2005-08-04Bryans, Michael0351 SERVICE PROF COMMUNICATION 24 075,00 $ 
2005-08-03NISHA TECHNOLOGIES INC. 1227 MATERIEL ORDINATEUR PETIT 15 876,66 $ 
2005-08-03SHARP ELECTRONICS OF CANADA 0533 LOC MACHINE MOBIL BUR-EQUIP 23 355,96 $ 
2005-08-03Allstream (formerly Qunara)0472 CONSEILLERS-TECH INFORMATION 24 717,00 $ 
2005-08-02DELL COMPUTER CORPORATION 1227 MATERIEL ORDINATEUR PETIT 39 983,76 $ 
2005-08-02PRINTERS PLUS 1227 MATERIEL ORDINATEUR PETIT 11 556,00 $ 
2005-08-02Science-Metrix0492 CONTRATS DE RECHERCHE 24 855,03 $ 
2005-08-01ADAPTEK SYSTEMS INC 1227 MATERIEL ORDINATEUR PETIT 12 144,50 $ 
2005-08-01ART WOODS BURO PLUS 1172 PAPETERIE-FOURNITURES BUREAU 25 000,00 $ 
2005-08-01BOYD MOVING & STORAGE LTD 0210 TRANSPORT DES OBJETS 38 823,55 $ 
2005-07-31WAVERTREE COMMUNICATIONS INC 0321 SERVICES IMPRIMERIE 29 536,28 $ 
2005-07-31WAVERTREE COMMUNICATIONS INC 0321 SERVICES IMPRIMERIE 31 843,20 $ 
2005-07-31WAVERTREE COMMUNICATIONS INC 0321 SERVICES IMPRIMERIE 38 939,44 $ 
2005-07-29Stratos Inc.0491 SERVICES CONSEILLERS GESTION 14 223,00 $ 
2005-07-29AspTek Software Systems Inc.0670 REPARATION EQUIP INFORM 24 910,67 $ 
2005-07-28Maxsys0813 SERVICES-AIDE TEMPORAIRE 38 862,36 $ 
2005-07-27Delsys Research Group Inc.0499 AUTRES SERVICES PROFESSIONNELS24 931,00 $ 
2005-07-27WAVERTREE COMMUNICATIONS INC 0321 SERVICES IMPRIMERIE 32 319,35 $ 
2005-07-27WAVERTREE COMMUNICATIONS INC 0321 SERVICES IMPRIMERIE 33 630,10 $ 
2005-07-27BMB Consulting Services Inc.0491 SERVICES CONSEILLERS GESTION 18 458,00 $ 
2005-07-26LEXISNEXIS CANADA INC. 0226 SERV TRANSM DONNEES-INTERNET 13 559,04 $ 
2005-07-22RESET ELECTRONICS INC 1228 LOGICIELS 22 939,73 $ 
2005-07-21DELL COMPUTER CORPORATION 1227 MATERIEL ORDINATEUR PETIT 39 983,76 $ 
2005-07-21Stone, Lena0492 CONTRATS DE RECHERCHE 24 824,00 $ 
2005-07-20NISHA TECHNOLOGIES INC 1227 MATERIEL ORDINATEUR PETIT 39 983,76 $ 
2005-07-18Stratos Inc.0499 AUTRES SERVICES PROFESSIONNELS24 917,00 $ 
2005-07-18SML et Associés Inc.0491 SERVICES CONSEILLERS GESTION 24 396,00 $ 
2005-07-14RICOH CANADA INC 0533 LOC MACHINE MOBIL BUR-EQUIP 16 865,35 $ 
2005-07-14RICOH CANADA INC 0533 LOC MACHINE MOBIL BUR-EQUIP 15 126,81 $ 
2005-07-13Mediaco0570 LOCATION-AUTRES 16 050,00 $ 
2005-07-12Skarfe Corporate Communications0351 SERVICE PROF COMMUNICATION 24 503,00 $ 
2005-07-11NISHA TECHNOLOGIES INC 1227 MATERIEL ORDINATEUR PETIT 39 714,12 $ 
2005-07-11PHASELOCK SYSTEMS INTERNATIONA 1227 MATERIEL ORDINATEUR PETIT 39 925,98 $ 
2005-07-07Goodfellow Agricola Consultants Inc.0499 AUTRES SERVICES PROFESSIONNELS23 968,00 $ 
2005-07-07Nicole Bégin-Heick & Associates0492 CONTRATS DE RECHERCHE 24 796,00 $ 
2005-07-07Baytek Systems Consulting International Ltd.0472 CONSEILLERS-TECH INFORMATION 24 075,00 $ 
2005-07-06WAVERTREE COMMUNICATIONS INC 0321 SERVICES IMPRIMERIE 21 647,17 $ 
2005-07-06TEKNION FURNITURE SYSTEMS LTD 1231 MOBILIER-AMEUBLEMENT BUREAU 11 593,45 $ 
2005-07-05SHARP ELECTRONICS OF CANADA 0533 LOC MACHINE MOBIL BUR-EQUIP 22 810,26 $ 
2005-07-05CYBERKLIX INC. 0670 REPARATION EQUIP INFORM 15 686,20 $ 
2005-07-04CYBERKLIX INC. 0670 REPARATION EQUIP INFORM 15 686,20 $ 
2005-07-01RICOH CANADA INC 0533 LOC MACHINE MOBIL BUR-EQUIP 12 454,80 $ 
2005-07-01Cooper Consulting0491 SERVICES CONSEILLERS GESTION 24 931,00 $ 
2005-06-01SIMPLEX INDUSTRIES INC 0859 AUTRES SERV COMMER NON-SPEC 25 000,00 $ 
2005-04-01GRAND AND TOY LTD 1172 PAPETERIE-FOURNITURES BUREAU 10 700,00 $ 
2005-03-31The Iron Horse Corporation0460 SERVICES DE PROTECTION 23 750,00 $ 
2005-02-25Design 2000 Communications0321 SERVICES IMPRIMERIE 11 787,77 $